Aurora, CO

6:42 AM MDT on March 26, 2017 (GMT -0600)
Buckley Air Force Base

Weather History for KBKF - January, 2014

Change the Weather History Date:

Thursday, January 9, 2014

  Actual Average Record
Temperature  
Mean Temperature 35 °F -  
Max Temperature 46 °F 42 °F 60 °F (2005)
Min Temperature 24 °F 20 °F 6 °F (1998)
Degree Days  
Heating Degree Days 30    
Moisture  
Dew Point 16 °F    
Average Humidity 54    
Maximum Humidity 69    
Minimum Humidity 25    
Precipitation  
Precipitation 0.00 in - - ()
Sea Level Pressure  
Sea Level Pressure 29.80 in    
Wind  
Wind Speed 9 mph (South)    
Max Wind Speed 12 mph    
Max Gust Speed -    
Visibility 10 miles    
Events      
Averages and records for this station are not official NWS values.
T = Trace of Precipitation, MM = Missing Value Source: NWS Daily Summary

Daily Weather History Graph

Daily Weather History Graph

Search for Another Location

Airport or City:

Trip Planner

Search our weather history database for the weather conditions in past years. The results will help you decide how hot, cold, wet, or windy it might be!

Date:

Astronomy

Jan. 09, 2014 Rise Set
Actual Time 7:19 AM MST 4:52 PM MST
Civil Twilight 6:49 AM MST 5:22 PM MST
Nautical Twilight 6:16 AM MST 5:56 PM MST
Astronomical Twilight 5:43 AM MST 6:28 PM MST
Moon 12:20 PM MST (1/9) 1:30 AM MST (1/9)
Length of Visible Light 10h 32m
Length of Day
9h 33m
Waxing Gibbous, 66% of the Moon is Illuminated
Jan 9
Waxing Gibbous
Jan 15
Full
Jan 23
Last Quarter
Jan 30
New
Feb 6
First Quarter

Hourly Weather History & Observations

Time (MST) Temp. Windchill Dew Point Humidity Pressure Visibility Wind Dir Wind Speed Gust Speed Precip Events Conditions
12:55 AM 26.6 °F 18.2 °F 17.6 °F 69% 29.91 in 10.0 mi NNW 8.1 mph - N/A   Scattered Clouds
1:55 AM 24.8 °F 16.1 °F 15.8 °F 69% 29.90 in 10.0 mi South 8.1 mph - N/A   Scattered Clouds
2:55 AM 24.8 °F 14.6 °F 15.8 °F 69% 29.92 in 10.0 mi South 10.4 mph - N/A   Partly Cloudy
3:55 AM 24.8 °F 15.3 °F 15.8 °F 69% 29.92 in 10.0 mi South 9.2 mph - N/A   Partly Cloudy
4:55 AM 24.8 °F 14.0 °F 15.8 °F 69% 29.91 in 10.0 mi South 11.5 mph - N/A   Partly Cloudy
5:55 AM 24.8 °F 16.1 °F 14.0 °F 64% 29.89 in 10.0 mi South 8.1 mph - N/A   Partly Cloudy
6:55 AM 24.8 °F 15.3 °F 14.0 °F 64% 29.91 in 70.0 mi South 9.2 mph - N/A   Scattered Clouds
7:55 AM 26.6 °F 16.2 °F 14.0 °F 59% 29.88 in 70.0 mi South 11.5 mph - N/A   Scattered Clouds
8:55 AM 32.0 °F 23.6 °F 15.8 °F 51% 29.86 in 70.0 mi South 10.4 mph - N/A   Partly Cloudy
9:55 AM 35.6 °F 27.5 °F 15.8 °F 44% 29.85 in 70.0 mi SW 11.5 mph - N/A   Partly Cloudy
10:55 AM 41.0 °F 35.8 °F 17.6 °F 39% 29.82 in 70.0 mi SSW 8.1 mph - N/A   Scattered Clouds
11:55 AM 42.8 °F 37.5 °F 15.8 °F 34% 29.79 in 70.0 mi SSW 9.2 mph - N/A   Scattered Clouds
12:55 PM 46.4 °F - 12.2 °F 25% 29.73 in 70.0 mi NE 2.3 mph - N/A   Scattered Clouds
1:55 PM 44.6 °F 41.4 °F 19.4 °F 37% 29.73 in 70.0 mi East 5.8 mph - N/A   Mostly Cloudy
2:55 PM 44.6 °F 40.7 °F 17.6 °F 34% 29.70 in 70.0 mi East 6.9 mph - N/A   Mostly Cloudy
4:55 PM 35.6 °F 28.6 °F 19.4 °F 52% 29.74 in 70.0 mi ESE 9.2 mph - N/A   Scattered Clouds
5:55 PM 32.0 °F 23.0 °F 19.4 °F 60% 29.77 in 25.0 mi ESE 11.5 mph - N/A   Scattered Clouds
6:55 PM 30.2 °F 22.6 °F 17.6 °F 60% 29.76 in 25.0 mi SSE 8.1 mph - N/A   Mostly Cloudy
7:55 PM 32.0 °F 24.8 °F 17.6 °F 55% 29.73 in 25.0 mi South 8.1 mph - N/A   Mostly Cloudy
8:55 PM 32.0 °F 26.4 °F 17.6 °F 55% 29.70 in 25.0 mi South 5.8 mph - N/A   Mostly Cloudy
9:55 PM 32.0 °F 26.4 °F 15.8 °F 51% 29.67 in 25.0 mi South 5.8 mph - N/A   Mostly Cloudy
10:55 PM 30.2 °F 21.3 °F 15.8 °F 55% 29.64 in 10.0 mi South 10.4 mph - N/A   Mostly Cloudy
11:55 PM 28.4 °F 20.4 °F 17.6 °F 64% 29.67 in 10.0 mi WNW 8.1 mph - N/A   Mostly Cloudy